Time,TemperatureF,DewpointF,PressureIn,WindDirection,WindDirectionDegrees,WindSpeedMPH,WindSpeedGustMPH,Humidity,HourlyPrecipIn,Conditions,Clouds,dailyrainin,SoftwareType,DateUTC
2013-07-10 00:06:00,67.8,65.0,30.16,NNE,18,0.0,0.0,91,0.00,,,0.00,weatherlink.com 1.10,2013-07-10 04:06:00,
2013-07-10 00:21:00,67.9,65.0,30.16,East,86,0.0,1.0,91,0.00,,,0.00,weatherlink.com 1.10,2013-07-10 04:21:00,
2013-07-10 00:36:00,67.9,65.0,30.16,East,87,0.0,0.0,91,0.00,,,0.00,weatherlink.com 1.10,2013-07-10 04:36:00,
2013-07-10 00:51:00,67.7,65.0,30.16,North,7,0.0,1.0,91,0.00,,,0.00,weatherlink.com 1.10,2013-07-10 04:51:00,
2013-07-10 01:06:00,67.6,65.0,30.16,North,8,0.0,0.0,91,0.00,,,0.00,weatherlink.com 1.10,2013-07-10 05:06:00,
2013-07-10 01:21:00,67.4,65.0,30.16,East,82,1.0,1.0,91,0.00,,,0.00,weatherlink.com 1.10,2013-07-10 05:21:00,
2013-07-10 01:36:00,67.3,65.0,30.15,East,80,0.0,0.0,91,0.00,,,0.00,weatherlink.com 1.10,2013-07-10 05:36:00,
2013-07-10 01:51:00,67.4,65.0,30.15,SSW,200,0.0,1.0,91,0.00,,,0.00,weatherlink.com 1.10,2013-07-10 05:51:00,
2013-07-10 02:06:00,67.3,65.0,30.14,ESE,107,0.0,1.0,91,0.00,,,0.00,weatherlink.com 1.10,2013-07-10 06:06:00,
2013-07-10 02:21:00,67.1,65.0,30.13,ESE,107,0.0,0.0,91,0.00,,,0.00,weatherlink.com 1.10,2013-07-10 06:21:00,
2013-07-10 02:36:00,67.0,64.0,30.12,NW,316,1.0,1.0,91,0.00,,,0.00,weatherlink.com 1.10,2013-07-10 06:36:00,
2013-07-10 02:51:00,66.9,64.0,30.10,NNE,29,1.0,2.0,91,0.00,,,0.00,weatherlink.com 1.10,2013-07-10 06:51:00,
2013-07-10 03:06:00,66.6,64.0,30.09,ENE,57,0.0,0.0,91,0.00,,,0.00,weatherlink.com 1.10,2013-07-10 07:06:00,
2013-07-10 03:21:00,66.3,64.0,30.08,NE,46,0.0,1.0,91,0.00,,,0.00,weatherlink.com 1.10,2013-07-10 07:21:00,
2013-07-10 03:36:00,65.9,63.0,30.07,NE,46,0.0,0.0,91,0.00,,,0.00,weatherlink.com 1.10,2013-07-10 07:36:00,
2013-07-10 03:51:00,65.8,63.0,30.08,SW,225,0.0,1.0,91,0.00,,,0.00,weatherlink.com 1.10,2013-07-10 07:51:00,
2013-07-10 04:06:00,66.1,63.0,30.08,NNE,13,1.0,1.0,90,0.00,,,0.00,weatherlink.com 1.10,2013-07-10 08:06:00,
2013-07-10 04:21:00,66.1,64.0,30.09,North,1,0.0,1.0,91,0.00,,,0.00,weatherlink.com 1.10,2013-07-10 08:21:00,
2013-07-10 04:36:00,65.6,63.0,30.09,ENE,59,0.0,1.0,91,0.00,,,0.00,weatherlink.com 1.10,2013-07-10 08:36:00,
2013-07-10 04:51:00,65.5,63.0,30.10,ENE,59,0.0,1.0,91,0.00,,,0.00,weatherlink.com 1.10,2013-07-10 08:51:00,
2013-07-10 05:06:00,65.6,63.0,30.10,ENE,59,0.0,0.0,91,0.01,,,0.01,weatherlink.com 1.10,2013-07-10 09:06:00,
2013-07-10 05:21:00,65.7,63.0,30.10,SSE,156,0.0,1.0,91,0.01,,,0.01,weatherlink.com 1.10,2013-07-10 09:21:00,
2013-07-10 05:36:00,66.0,63.0,30.11,SSE,156,0.0,0.0,91,0.01,,,0.01,weatherlink.com 1.10,2013-07-10 09:36:00,
2013-07-10 05:51:00,66.2,64.0,30.11,ESE,114,0.0,1.0,91,0.01,,,0.01,weatherlink.com 1.10,2013-07-10 09:51:00,
2013-07-10 06:06:00,66.2,64.0,30.11,SE,137,0.0,1.0,91,0.00,,,0.01,weatherlink.com 1.10,2013-07-10 10:06:00,
2013-07-10 06:21:00,66.0,63.0,30.10,SE,136,0.0,0.0,91,0.00,,,0.01,weatherlink.com 1.10,2013-07-10 10:21:00,
2013-07-10 06:36:00,65.9,63.0,30.11,SE,136,0.0,0.0,91,0.00,,,0.01,weatherlink.com 1.10,2013-07-10 10:36:00,
2013-07-10 06:51:00,66.0,63.0,30.11,SE,136,0.0,0.0,91,0.00,,,0.01,weatherlink.com 1.10,2013-07-10 10:51:00,
2013-07-10 07:06:00,66.1,64.0,30.10,ESE,117,0.0,1.0,91,0.00,,,0.01,weatherlink.com 1.10,2013-07-10 11:06:00,
2013-07-10 07:21:00,66.6,64.0,30.11,ESE,117,0.0,1.0,91,0.00,,,0.01,weatherlink.com 1.10,2013-07-10 11:21:00,
2013-07-10 07:36:00,67.0,64.0,30.10,ESE,117,0.0,1.0,91,0.00,,,0.01,weatherlink.com 1.10,2013-07-10 11:36:00,
2013-07-10 07:51:00,67.5,65.0,30.10,North,359,1.0,1.0,91,0.00,,,0.01,weatherlink.com 1.10,2013-07-10 11:51:00,
2013-07-10 08:06:00,68.0,65.0,30.10,North,9,1.0,1.0,91,0.00,,,0.01,weatherlink.com 1.10,2013-07-10 12:06:00,
2013-07-10 08:21:00,68.5,67.0,30.11,NE,40,1.0,2.0,93,0.00,,,0.01,weatherlink.com 1.10,2013-07-10 12:21:00,
2013-07-10 08:36:00,70.9,69.0,30.11,NNW,341,1.0,1.0,92,0.00,,,0.01,weatherlink.com 1.10,2013-07-10 12:36:00,
2013-07-10 08:51:00,72.9,69.0,30.11,NW,323,0.0,2.0,86,0.00,,,0.01,weatherlink.com 1.10,2013-07-10 12:51:00,
2013-07-10 09:07:00,73.8,69.0,30.10,NW,308,1.0,3.0,85,0.00,,,0.01,weatherlink.com 1.10,2013-07-10 13:07:00,
2013-07-10 09:22:00,74.4,69.0,30.09,NNW,343,2.0,5.0,83,0.00,,,0.01,weatherlink.com 1.10,2013-07-10 13:22:00,
2013-07-10 09:37:00,75.5,69.0,30.09,WNW,291,3.0,6.0,80,0.00,,,0.01,weatherlink.com 1.10,2013-07-10 13:37:00,
2013-07-10 09:52:00,76.1,70.0,30.09,North,356,1.0,5.0,80,0.00,,,0.01,weatherlink.com 1.10,2013-07-10 13:52:00,
2013-07-10 10:07:00,76.7,69.0,30.09,NW,317,4.0,6.0,78,0.00,,,0.01,weatherlink.com 1.10,2013-07-10 14:07:00,
2013-07-10 10:22:00,77.9,68.0,30.09,NW,321,1.0,3.0,72,0.00,,,0.01,weatherlink.com 1.10,2013-07-10 14:22:00,
2013-07-10 10:37:00,79.0,70.0,30.09,WNW,303,3.0,9.0,73,0.00,,,0.01,weatherlink.com 1.10,2013-07-10 14:37:00,
2013-07-10 10:52:00,79.2,68.0,30.10,ENE,65,2.0,3.0,68,0.00,,,0.01,weatherlink.com 1.10,2013-07-10 14:52:00,
2013-07-10 11:07:00,79.0,70.0,30.09,NNW,338,1.0,4.0,73,0.00,,,0.01,weatherlink.com 1.10,2013-07-10 15:07:00,
2013-07-10 11:22:00,77.6,71.0,30.10,ENE,76,1.0,7.0,80,0.00,,,0.01,weatherlink.com 1.10,2013-07-10 15:22:00,
2013-07-10 11:37:00,75.7,70.0,30.10,NE,56,1.0,7.0,83,0.00,,,0.01,weatherlink.com 1.10,2013-07-10 15:37:00,
2013-07-10 11:52:00,74.3,69.0,30.10,ENE,72,3.0,6.0,84,0.00,,,0.01,weatherlink.com 1.10,2013-07-10 15:52:00,
2013-07-10 12:07:00,74.0,70.0,30.09,SE,137,3.0,4.0,86,0.00,,,0.01,weatherlink.com 1.10,2013-07-10 16:07:00,
2013-07-10 12:22:00,73.7,69.0,30.09,East,101,1.0,4.0,86,0.00,,,0.01,weatherlink.com 1.10,2013-07-10 16:22:00,
2013-07-10 12:37:00,73.0,69.0,30.09,East,100,2.0,2.0,87,0.01,,,0.02,weatherlink.com 1.10,2013-07-10 16:37:00,
2013-07-10 12:52:00,71.4,69.0,30.08,WSW,237,2.0,3.0,92,0.11,,,0.12,weatherlink.com 1.10,2013-07-10 16:52:00,
2013-07-10 13:07:00,71.0,69.0,30.07,South,173,0.0,3.0,92,0.11,,,0.12,weatherlink.com 1.10,2013-07-10 17:07:00,
2013-07-10 13:22:00,72.6,70.0,30.07,ENE,65,0.0,2.0,92,0.11,,,0.12,weatherlink.com 1.10,2013-07-10 17:22:00,
2013-07-10 13:37:00,75.0,71.0,30.06,ESE,105,1.0,5.0,88,0.09,,,0.12,weatherlink.com 1.10,2013-07-10 17:37:00,
2013-07-10 13:52:00,76.6,70.0,30.05,ENE,77,3.0,5.0,80,0.00,,,0.12,weatherlink.com 1.10,2013-07-10 17:52:00,
2013-07-10 14:07:00,76.8,71.0,30.05,SSE,156,3.0,5.0,81,0.00,,,0.12,weatherlink.com 1.10,2013-07-10 18:07:00,
2013-07-10 14:22:00,78.1,71.0,30.04,WSW,242,1.0,8.0,79,0.00,,,0.12,weatherlink.com 1.10,2013-07-10 18:22:00,
2013-07-10 14:37:00,78.8,71.0,30.04,SSW,195,2.0,9.0,76,0.00,,,0.12,weatherlink.com 1.10,2013-07-10 18:37:00,
2013-07-10 14:52:00,78.5,71.0,30.03,SE,132,3.0,3.0,78,0.00,,,0.12,weatherlink.com 1.10,2013-07-10 18:52:00,
2013-07-10 15:07:00,78.9,71.0,30.03,SSW,205,2.0,6.0,77,0.00,,,0.12,weatherlink.com 1.10,2013-07-10 19:07:00,
2013-07-10 15:22:00,77.6,70.0,30.03,SW,233,3.0,6.0,78,0.00,,,0.12,weatherlink.com 1.10,2013-07-10 19:22:00,
2013-07-10 15:37:00,77.2,69.0,30.02,SSE,159,7.0,7.0,76,0.00,,,0.12,weatherlink.com 1.10,2013-07-10 19:37:00,
2013-07-10 15:52:00,76.4,67.0,30.02,SE,141,5.0,8.0,73,0.00,,,0.12,weatherlink.com 1.10,2013-07-10 19:52:00,
2013-07-10 16:07:00,76.7,69.0,30.01,ESE,121,3.0,4.0,78,0.00,,,0.12,weatherlink.com 1.10,2013-07-10 20:07:00,
2013-07-10 16:22:00,76.4,70.0,30.01,East,96,1.0,5.0,80,0.00,,,0.12,weatherlink.com 1.10,2013-07-10 20:22:00,
2013-07-10 16:37:00,76.5,70.0,30.00,ESE,103,4.0,7.0,81,0.00,,,0.12,weatherlink.com 1.10,2013-07-10 20:37:00,
2013-07-10 16:52:00,77.0,71.0,29.99,SE,141,2.0,6.0,81,0.00,,,0.12,weatherlink.com 1.10,2013-07-10 20:52:00,
2013-07-10 17:07:00,75.5,70.0,30.00,SE,140,4.0,5.0,82,0.00,,,0.12,weatherlink.com 1.10,2013-07-10 21:07:00,
2013-07-10 17:22:00,74.4,70.0,30.00,SE,131,3.0,7.0,85,0.09,,,0.21,weatherlink.com 1.10,2013-07-10 21:22:00,
2013-07-10 17:37:00,73.6,69.0,30.00,SE,127,3.0,7.0,86,0.12,,,0.24,weatherlink.com 1.10,2013-07-10 21:37:00,
2013-07-10 17:52:00,72.6,69.0,30.00,NW,309,0.0,4.0,89,0.12,,,0.24,weatherlink.com 1.10,2013-07-10 21:52:00,
2013-07-10 18:07:00,70.2,68.0,30.01,NNW,329,1.0,6.0,91,0.16,,,0.28,weatherlink.com 1.10,2013-07-10 22:07:00,
2013-07-10 18:22:00,68.6,67.0,30.00,NW,319,0.0,0.0,93,0.08,,,0.30,weatherlink.com 1.10,2013-07-10 22:22:00,
2013-07-10 18:37:00,68.3,66.0,30.01,NNE,18,0.0,1.0,93,0.07,,,0.31,weatherlink.com 1.10,2013-07-10 22:37:00,
2013-07-10 18:52:00,68.3,66.0,30.02,North,11,1.0,1.0,93,0.07,,,0.31,weatherlink.com 1.10,2013-07-10 22:52:00,
2013-07-10 19:07:00,68.5,67.0,30.02,SE,143,0.0,1.0,93,0.03,,,0.31,weatherlink.com 1.10,2013-07-10 23:07:00,
2013-07-10 19:22:00,68.4,66.0,30.02,NNE,15,0.0,2.0,93,0.01,,,0.31,weatherlink.com 1.10,2013-07-10 23:22:00,
2013-07-10 19:37:00,68.6,67.0,30.02,East,101,1.0,2.0,93,0.00,,,0.31,weatherlink.com 1.10,2013-07-10 23:37:00,
2013-07-10 19:52:00,68.5,67.0,30.03,South,180,0.0,1.0,93,0.00,,,0.31,weatherlink.com 1.10,2013-07-10 23:52:00,
2013-07-10 20:07:00,68.6,67.0,30.03,South,180,0.0,0.0,93,0.00,,,0.31,weatherlink.com 1.10,2013-07-11 00:07:00,
2013-07-10 20:22:00,68.5,67.0,30.03,WSW,246,0.0,2.0,93,0.01,,,0.32,weatherlink.com 1.10,2013-07-11 00:22:00,
2013-07-10 20:37:00,68.5,66.0,30.03,WSW,246,0.0,0.0,92,0.01,,,0.32,weatherlink.com 1.10,2013-07-11 00:37:00,
2013-07-10 20:52:00,68.5,66.0,30.02,WSW,245,0.0,0.0,92,0.01,,,0.32,weatherlink.com 1.10,2013-07-11 00:52:00,
2013-07-10 21:08:00,68.2,66.0,30.02,WSW,246,0.0,1.0,92,0.01,,,0.32,weatherlink.com 1.10,2013-07-11 01:08:00,
2013-07-10 21:23:00,67.9,66.0,30.01,WSW,246,0.0,0.0,92,0.00,,,0.32,weatherlink.com 1.10,2013-07-11 01:23:00,
2013-07-10 21:38:00,67.7,65.0,30.01,WSW,246,0.0,0.0,92,0.00,,,0.32,weatherlink.com 1.10,2013-07-11 01:38:00,
2013-07-10 21:53:00,67.8,65.0,30.02,WSW,246,0.0,1.0,91,0.00,,,0.32,weatherlink.com 1.10,2013-07-11 01:53:00,
2013-07-10 22:08:00,67.7,65.0,30.03,WSW,246,0.0,0.0,91,0.00,,,0.32,weatherlink.com 1.10,2013-07-11 02:08:00,
2013-07-10 22:23:00,67.7,65.0,30.04,WSW,246,0.0,1.0,91,0.00,,,0.32,weatherlink.com 1.10,2013-07-11 02:23:00,
2013-07-10 22:38:00,67.7,65.0,30.04,WSW,246,0.0,0.0,91,0.00,,,0.32,weatherlink.com 1.10,2013-07-11 02:38:00,
2013-07-10 22:53:00,67.6,65.0,30.03,WSW,246,0.0,1.0,91,0.00,,,0.32,weatherlink.com 1.10,2013-07-11 02:53:00,
2013-07-10 23:08:00,67.6,65.0,30.02,WSW,246,0.0,0.0,91,0.00,,,0.32,weatherlink.com 1.10,2013-07-11 03:08:00,
2013-07-10 23:23:00,67.6,65.0,30.02,SE,137,1.0,1.0,91,0.00,,,0.32,weatherlink.com 1.10,2013-07-11 03:23:00,
2013-07-10 23:38:00,67.4,65.0,30.01,ENE,66,2.0,2.0,91,0.00,,,0.32,weatherlink.com 1.10,2013-07-11 03:38:00,
2013-07-10 23:53:00,67.3,65.0,30.01,ENE,67,0.0,0.0,91,0.00,,,0.32,weatherlink.com 1.10,2013-07-11 03:53:00,